Time,TemperatureF,DewpointF,PressureIn,WindDirection,WindDirectionDegrees,WindSpeedMPH,WindSpeedGustMPH,Humidity,HourlyPrecipIn,Conditions,Clouds,dailyrainin,SoftwareType,DateUTC
2015-08-27 00:04:00,62.2,53.4,29.81,NNW,337,0.0,0.0,73,0.00,,,0.00,meteobridge,2015-08-27 04:04:00,
2015-08-27 00:09:00,62.2,53.8,29.81,NNW,338,0.0,0.0,74,0.00,,,0.00,meteobridge,2015-08-27 04:09:00,
2015-08-27 00:14:00,62.2,53.8,29.81,NNW,338,0.0,0.0,74,0.00,,,0.00,meteobridge,2015-08-27 04:14:00,
2015-08-27 00:19:00,62.1,54.0,29.81,NNW,338,0.0,0.0,75,0.00,,,0.00,meteobridge,2015-08-27 04:19:00,
2015-08-27 00:24:00,62.1,54.3,29.81,NNW,337,0.0,0.0,76,0.00,,,0.00,meteobridge,2015-08-27 04:24:00,
2015-08-27 00:30:00,62.1,54.7,29.80,NNW,337,0.0,0.0,77,0.00,,,0.00,meteobridge,2015-08-27 04:30:00,
2015-08-27 00:35:00,61.5,54.3,29.80,NNW,338,0.0,0.0,77,0.00,,,0.00,meteobridge,2015-08-27 04:35:00,
2015-08-27 00:40:00,61.5,54.3,29.80,NNW,337,0.0,1.0,77,0.00,,,0.00,meteobridge,2015-08-27 04:40:00,
2015-08-27 00:45:00,61.5,54.7,29.81,NNW,338,0.0,0.0,78,0.00,,,0.00,meteobridge,2015-08-27 04:45:00,
2015-08-27 00:50:00,61.3,54.5,29.81,NNW,337,0.0,1.0,78,0.00,,,0.00,meteobridge,2015-08-27 04:50:00,
2015-08-27 00:55:00,61.3,54.5,29.81,NNW,337,0.0,1.0,78,0.00,,,0.00,meteobridge,2015-08-27 04:55:00,
2015-08-27 01:02:00,61.3,54.5,29.80,NNW,338,0.0,0.0,78,0.00,,,0.00,meteobridge,2015-08-27 05:02:00,
2015-08-27 01:07:00,61.2,54.3,29.80,NNW,338,0.0,0.0,78,0.00,,,0.00,meteobridge,2015-08-27 05:07:00,
2015-08-27 01:12:00,61.0,54.5,29.80,NNW,337,0.0,0.0,79,0.00,,,0.00,meteobridge,2015-08-27 05:12:00,
2015-08-27 01:17:00,61.0,54.5,29.80,NNW,338,0.0,0.0,79,0.00,,,0.00,meteobridge,2015-08-27 05:17:00,
2015-08-27 01:22:00,61.0,54.5,29.80,NNW,338,0.0,0.0,79,0.00,,,0.00,meteobridge,2015-08-27 05:22:00,
2015-08-27 01:27:00,61.0,54.5,29.80,NNW,337,0.0,0.0,79,0.00,,,0.00,meteobridge,2015-08-27 05:27:00,
2015-08-27 01:32:00,61.0,54.5,29.80,NNW,338,0.0,1.0,79,0.00,,,0.00,meteobridge,2015-08-27 05:32:00,
2015-08-27 01:37:00,60.6,54.1,29.80,NNW,337,0.0,0.0,79,0.00,,,0.00,meteobridge,2015-08-27 05:37:00,
2015-08-27 01:42:00,60.6,54.5,29.80,NNW,338,0.0,2.0,80,0.00,,,0.00,meteobridge,2015-08-27 05:42:00,
2015-08-27 01:47:00,60.4,54.3,29.79,NNW,338,0.0,0.0,80,0.00,,,0.00,meteobridge,2015-08-27 05:47:00,
2015-08-27 01:52:00,60.3,53.8,29.79,NNW,337,0.0,1.0,79,0.00,,,0.00,meteobridge,2015-08-27 05:52:00,
2015-08-27 01:53:00,60.3,53.8,29.79,NNW,337,0.0,1.0,79,0.00,,,0.00,meteobridge,2015-08-27 05:53:00,
2015-08-27 01:58:00,60.1,53.6,29.79,NNW,337,0.0,0.0,79,0.00,,,0.00,meteobridge,2015-08-27 05:58:00,
2015-08-27 02:03:00,59.9,53.8,29.80,NNW,337,0.0,2.0,80,0.00,,,0.00,meteobridge,2015-08-27 06:03:00,
2015-08-27 02:08:00,59.9,53.8,29.80,NNW,338,0.0,1.0,80,0.00,,,0.00,meteobridge,2015-08-27 06:08:00,
2015-08-27 02:14:00,59.7,54.0,29.80,NNW,338,0.0,0.0,81,0.00,,,0.00,meteobridge,2015-08-27 06:14:00,
2015-08-27 02:19:00,59.7,54.0,29.80,NNW,337,0.0,1.0,81,0.00,,,0.00,meteobridge,2015-08-27 06:19:00,
2015-08-27 02:24:00,59.5,54.0,29.80,NNW,338,0.9,1.0,82,0.00,,,0.00,meteobridge,2015-08-27 06:24:00,
2015-08-27 02:29:00,59.5,54.0,29.79,NNW,338,0.0,1.0,82,0.00,,,0.00,meteobridge,2015-08-27 06:29:00,
2015-08-27 02:34:00,59.5,54.0,29.79,NNW,337,0.0,2.0,82,0.00,,,0.00,meteobridge,2015-08-27 06:34:00,
2015-08-27 02:39:00,59.5,54.0,29.79,NNW,337,0.0,1.0,82,0.00,,,0.00,meteobridge,2015-08-27 06:39:00,
2015-08-27 02:44:00,59.4,53.8,29.79,NNW,337,0.0,1.0,82,0.00,,,0.00,meteobridge,2015-08-27 06:44:00,
2015-08-27 02:50:00,59.4,54.1,29.79,NNW,337,0.0,1.0,83,0.00,,,0.00,meteobridge,2015-08-27 06:50:00,
2015-08-27 02:55:00,59.2,54.0,29.79,NNW,337,0.0,0.0,83,0.00,,,0.00,meteobridge,2015-08-27 06:55:00,
2015-08-27 03:00:00,59.0,53.8,29.79,NNW,337,0.0,0.0,83,0.00,,,0.00,meteobridge,2015-08-27 07:00:00,
2015-08-27 03:05:00,58.8,54.0,29.79,NNW,337,0.0,0.0,84,0.00,,,0.00,meteobridge,2015-08-27 07:05:00,
2015-08-27 03:10:00,58.6,53.8,29.79,NNW,337,0.0,0.0,84,0.00,,,0.00,meteobridge,2015-08-27 07:10:00,
2015-08-27 03:15:00,58.5,53.6,29.80,NNW,337,0.0,0.0,84,0.00,,,0.00,meteobridge,2015-08-27 07:15:00,
2015-08-27 03:21:00,58.3,53.8,29.80,NNW,338,0.0,0.0,85,0.00,,,0.00,meteobridge,2015-08-27 07:21:00,
2015-08-27 03:27:00,58.3,54.1,29.80,NNW,337,0.0,0.0,86,0.00,,,0.00,meteobridge,2015-08-27 07:27:00,
2015-08-27 03:32:00,58.3,54.1,29.79,NNW,337,0.0,0.0,86,0.00,,,0.00,meteobridge,2015-08-27 07:32:00,
2015-08-27 03:37:00,58.3,54.5,29.79,NNW,337,0.9,1.0,87,0.00,,,0.00,meteobridge,2015-08-27 07:37:00,
2015-08-27 03:42:00,58.3,54.5,29.79,NNW,337,0.9,4.0,87,0.00,,,0.00,meteobridge,2015-08-27 07:42:00,
2015-08-27 03:48:00,58.3,54.5,29.80,NNW,337,0.0,1.0,87,0.00,,,0.00,meteobridge,2015-08-27 07:48:00,
2015-08-27 03:53:00,58.3,54.5,29.80,NNW,337,0.0,1.0,87,0.00,,,0.00,meteobridge,2015-08-27 07:53:00,
2015-08-27 03:58:00,58.1,54.3,29.79,NNW,337,0.0,1.0,87,0.00,,,0.00,meteobridge,2015-08-27 07:58:00,
2015-08-27 04:03:00,57.9,53.8,29.79,NNW,337,0.0,1.0,86,0.00,,,0.00,meteobridge,2015-08-27 08:03:00,
2015-08-27 04:08:00,57.7,54.0,29.79,NNW,337,0.0,1.0,87,0.00,,,0.00,meteobridge,2015-08-27 08:08:00,
2015-08-27 04:14:00,57.6,53.8,29.79,NNW,337,0.0,0.0,87,0.00,,,0.00,meteobridge,2015-08-27 08:14:00,
2015-08-27 04:19:00,57.6,53.8,29.79,NNW,337,0.0,0.0,87,0.00,,,0.00,meteobridge,2015-08-27 08:19:00,
2015-08-27 04:24:00,57.4,53.8,29.79,NNW,337,0.0,0.0,88,0.00,,,0.00,meteobridge,2015-08-27 08:24:00,
2015-08-27 04:29:00,57.2,53.6,29.80,NNW,337,0.0,0.0,88,0.00,,,0.00,meteobridge,2015-08-27 08:29:00,
2015-08-27 04:34:00,57.0,53.4,29.80,NNW,337,0.0,0.0,88,0.00,,,0.00,meteobridge,2015-08-27 08:34:00,
2015-08-27 04:39:00,57.0,53.8,29.80,NNW,337,0.0,0.0,89,0.00,,,0.00,meteobridge,2015-08-27 08:39:00,
2015-08-27 04:45:00,57.0,53.8,29.80,NNW,337,0.0,1.0,89,0.00,,,0.00,meteobridge,2015-08-27 08:45:00,
2015-08-27 04:50:00,57.0,54.1,29.80,NNW,337,0.0,0.0,90,0.00,,,0.00,meteobridge,2015-08-27 08:50:00,
2015-08-27 04:55:00,56.8,54.0,29.80,NNW,337,0.0,0.0,90,0.00,,,0.00,meteobridge,2015-08-27 08:55:00,
2015-08-27 05:00:00,56.8,54.0,29.80,NNW,337,0.0,1.0,90,0.00,,,0.00,meteobridge,2015-08-27 09:00:00,
2015-08-27 05:05:00,56.8,54.3,29.80,NNW,337,0.9,3.0,91,0.00,,,0.00,meteobridge,2015-08-27 09:05:00,
2015-08-27 05:10:00,56.8,54.3,29.80,NNW,337,0.0,1.0,91,0.00,,,0.00,meteobridge,2015-08-27 09:10:00,
2015-08-27 05:15:00,56.8,54.3,29.80,NNW,337,0.0,0.0,91,0.00,,,0.00,meteobridge,2015-08-27 09:15:00,
2015-08-27 05:20:00,56.8,54.3,29.80,NNW,337,0.0,3.0,91,0.00,,,0.00,meteobridge,2015-08-27 09:20:00,
2015-08-27 05:25:00,56.8,54.0,29.80,NNW,337,0.0,3.0,90,0.00,,,0.00,meteobridge,2015-08-27 09:25:00,
2015-08-27 05:31:00,56.7,53.8,29.80,NNW,337,0.0,2.0,90,0.00,,,0.00,meteobridge,2015-08-27 09:31:00,
2015-08-27 05:36:00,56.7,53.8,29.80,NNW,337,2.0,3.0,90,0.00,,,0.00,meteobridge,2015-08-27 09:36:00,
2015-08-27 05:41:00,56.7,54.1,29.80,NNW,337,0.9,2.0,91,0.00,,,0.00,meteobridge,2015-08-27 09:41:00,
2015-08-27 05:46:00,56.7,54.1,29.80,NNW,337,0.0,1.0,91,0.00,,,0.00,meteobridge,2015-08-27 09:46:00,
2015-08-27 05:51:00,56.7,54.1,29.80,NNW,337,0.0,0.0,91,0.00,,,0.00,meteobridge,2015-08-27 09:51:00,
2015-08-27 05:56:00,56.7,53.8,29.80,NNW,333,0.9,4.0,90,0.00,,,0.00,meteobridge,2015-08-27 09:56:00,
2015-08-27 06:02:00,56.7,53.8,29.80,NNW,333,0.9,1.0,90,0.00,,,0.00,meteobridge,2015-08-27 10:02:00,
2015-08-27 06:07:00,56.7,53.8,29.80,NNW,333,0.0,0.0,90,0.00,,,0.00,meteobridge,2015-08-27 10:07:00,
2015-08-27 06:12:00,56.7,54.1,29.80,NNW,333,0.0,0.0,91,0.00,,,0.00,meteobridge,2015-08-27 10:12:00,
2015-08-27 06:17:00,56.7,54.1,29.81,NNW,333,0.0,0.0,91,0.00,,,0.00,meteobridge,2015-08-27 10:17:00,
2015-08-27 06:22:00,56.5,54.0,29.81,NNW,333,0.0,0.0,91,0.00,,,0.00,meteobridge,2015-08-27 10:22:00,
2015-08-27 06:27:00,56.5,54.0,29.81,NNW,333,0.0,0.0,91,0.00,,,0.00,meteobridge,2015-08-27 10:27:00,
2015-08-27 06:33:00,56.3,53.8,29.83,NNW,333,0.0,0.0,91,0.00,,,0.00,meteobridge,2015-08-27 10:33:00,
2015-08-27 06:36:00,56.3,53.8,29.83,NNW,333,0.0,0.0,91,0.00,,,0.00,meteobridge,2015-08-27 10:36:00,
2015-08-27 06:41:00,56.1,53.6,29.83,NNW,333,0.0,0.0,91,0.00,,,0.00,meteobridge,2015-08-27 10:41:00,
2015-08-27 06:46:00,55.9,53.4,29.83,NNW,333,0.0,0.0,91,0.00,,,0.00,meteobridge,2015-08-27 10:46:00,
2015-08-27 06:51:00,55.9,53.4,29.83,NNW,333,0.0,1.0,91,0.00,,,0.00,meteobridge,2015-08-27 10:51:00,
2015-08-27 06:56:00,55.8,53.4,29.83,NNW,333,0.0,0.0,92,0.00,,,0.00,meteobridge,2015-08-27 10:56:00,
2015-08-27 07:02:00,55.6,53.2,29.83,NNW,333,0.0,0.0,92,0.00,,,0.00,meteobridge,2015-08-27 11:02:00,
2015-08-27 07:07:00,55.6,53.2,29.83,NNW,333,0.0,0.0,92,0.00,,,0.00,meteobridge,2015-08-27 11:07:00,
2015-08-27 07:12:00,55.8,53.8,29.83,NNW,333,0.0,0.0,93,0.00,,,0.00,meteobridge,2015-08-27 11:12:00,
2015-08-27 07:17:00,55.8,53.8,29.83,NNW,333,0.0,0.0,93,0.00,,,0.00,meteobridge,2015-08-27 11:17:00,
2015-08-27 07:22:00,55.9,54.0,29.83,NNW,333,0.0,0.0,93,0.00,,,0.00,meteobridge,2015-08-27 11:22:00,
2015-08-27 07:27:00,55.9,54.0,29.83,NNW,333,0.0,0.0,93,0.00,,,0.00,meteobridge,2015-08-27 11:27:00,
2015-08-27 07:33:00,56.1,54.1,29.85,NNW,333,0.0,0.0,93,0.00,,,0.00,meteobridge,2015-08-27 11:33:00,
2015-08-27 07:38:00,56.3,54.0,29.85,NNW,333,0.0,0.0,92,0.00,,,0.00,meteobridge,2015-08-27 11:38:00,
2015-08-27 07:43:00,56.7,54.3,29.85,NNW,333,0.0,0.0,92,0.00,,,0.00,meteobridge,2015-08-27 11:43:00,
2015-08-27 07:48:00,56.7,54.1,29.84,NNW,333,0.0,0.0,91,0.00,,,0.00,meteobridge,2015-08-27 11:48:00,
2015-08-27 07:53:00,56.8,54.3,29.84,NNW,333,0.0,0.0,91,0.00,,,0.00,meteobridge,2015-08-27 11:53:00,
2015-08-27 07:58:00,57.2,54.3,29.85,NNW,333,0.0,0.0,90,0.00,,,0.00,meteobridge,2015-08-27 11:58:00,
2015-08-27 08:03:00,57.4,54.5,29.85,NNW,333,0.0,0.0,90,0.00,,,0.00,meteobridge,2015-08-27 12:03:00,
2015-08-27 08:09:00,57.6,54.3,29.85,NNW,333,0.0,2.0,89,0.00,,,0.00,meteobridge,2015-08-27 12:09:00,
2015-08-27 08:14:00,57.7,54.1,29.85,NNW,333,0.0,0.0,88,0.00,,,0.00,meteobridge,2015-08-27 12:14:00,
2015-08-27 08:19:00,58.1,54.5,29.85,NNW,333,0.0,1.0,88,0.00,,,0.00,meteobridge,2015-08-27 12:19:00,
2015-08-27 08:24:00,58.6,54.5,29.85,NNW,333,0.0,1.0,86,0.00,,,0.00,meteobridge,2015-08-27 12:24:00,
2015-08-27 08:29:00,58.8,54.3,29.86,NNW,333,0.0,1.0,85,0.00,,,0.00,meteobridge,2015-08-27 12:29:00,
2015-08-27 08:34:00,59.5,54.7,29.86,NNW,333,0.9,1.0,84,0.00,,,0.00,meteobridge,2015-08-27 12:34:00,
2015-08-27 08:39:00,59.9,54.3,29.86,NNW,333,0.0,1.0,82,0.00,,,0.00,meteobridge,2015-08-27 12:39:00,
2015-08-27 08:44:00,60.4,54.5,29.85,NNW,333,0.0,1.0,81,0.00,,,0.00,meteobridge,2015-08-27 12:44:00,
2015-08-27 08:49:00,60.6,54.7,29.85,NNW,333,0.0,0.0,81,0.00,,,0.00,meteobridge,2015-08-27 12:49:00,
2015-08-27 08:54:00,61.0,54.7,29.85,NNW,333,0.0,0.0,80,0.00,,,0.00,meteobridge,2015-08-27 12:54:00,
2015-08-27 09:00:00,61.5,54.9,29.85,NNW,333,0.9,1.0,79,0.00,,,0.00,meteobridge,2015-08-27 13:00:00,
2015-08-27 09:05:00,62.1,55.0,29.85,NNW,332,0.0,2.0,78,0.00,,,0.00,meteobridge,2015-08-27 13:05:00,
2015-08-27 09:10:00,62.4,55.4,29.85,NNW,332,0.0,1.0,78,0.00,,,0.00,meteobridge,2015-08-27 13:10:00,
2015-08-27 09:15:00,63.0,55.6,29.86,NNW,332,0.0,1.0,77,0.00,,,0.00,meteobridge,2015-08-27 13:15:00,
2015-08-27 09:20:00,63.3,55.6,29.86,NNW,332,0.0,1.0,76,0.00,,,0.00,meteobridge,2015-08-27 13:20:00,
2015-08-27 09:26:00,63.9,55.8,29.86,NNW,332,0.9,1.0,75,0.00,,,0.00,meteobridge,2015-08-27 13:26:00,
2015-08-27 09:31:00,64.2,55.4,29.86,NNW,332,0.0,1.0,73,0.00,,,0.00,meteobridge,2015-08-27 13:31:00,
2015-08-27 09:36:00,64.8,56.3,29.86,NNW,333,0.0,4.0,74,0.00,,,0.00,meteobridge,2015-08-27 13:36:00,
2015-08-27 09:41:00,65.5,55.4,29.86,NNW,333,0.0,2.0,70,0.00,,,0.00,meteobridge,2015-08-27 13:41:00,
2015-08-27 09:46:00,65.7,55.6,29.86,NNW,333,0.0,4.0,70,0.00,,,0.00,meteobridge,2015-08-27 13:46:00,
2015-08-27 09:51:00,66.0,55.6,29.86,NNW,334,0.9,5.0,69,0.00,,,0.00,meteobridge,2015-08-27 13:51:00,
2015-08-27 09:56:00,66.6,54.9,29.86,NNW,336,0.0,1.0,66,0.00,,,0.00,meteobridge,2015-08-27 13:56:00,
2015-08-27 10:01:00,67.3,55.6,29.86,North,5,0.9,7.0,66,0.00,,,0.00,meteobridge,2015-08-27 14:01:00,
2015-08-27 10:06:00,67.8,56.5,29.86,North,350,0.0,4.0,67,0.00,,,0.00,meteobridge,2015-08-27 14:06:00,
2015-08-27 10:11:00,68.2,55.6,29.86,NNW,327,4.9,5.0,64,0.00,,,0.00,meteobridge,2015-08-27 14:11:00,
2015-08-27 10:16:00,68.4,55.8,29.86,NNE,18,0.0,5.0,64,0.00,,,0.00,meteobridge,2015-08-27 14:16:00,
2015-08-27 10:21:00,68.4,54.9,29.86,NNE,16,0.0,2.0,62,0.00,,,0.00,meteobridge,2015-08-27 14:21:00,
2015-08-27 10:26:00,68.9,54.9,29.86,NNE,16,0.0,4.0,61,0.00,,,0.00,meteobridge,2015-08-27 14:26:00,
2015-08-27 10:31:00,69.1,55.0,29.86,North,11,0.9,2.0,61,0.00,,,0.00,meteobridge,2015-08-27 14:31:00,
2015-08-27 10:36:00,69.4,56.3,29.86,North,5,0.0,1.0,63,0.00,,,0.00,meteobridge,2015-08-27 14:36:00,
2015-08-27 10:42:00,69.6,55.6,29.86,North,5,0.9,1.0,61,0.00,,,0.00,meteobridge,2015-08-27 14:42:00,
2015-08-27 10:46:00,70.0,54.5,29.86,NNE,20,6.9,7.0,58,0.00,,,0.00,meteobridge,2015-08-27 14:46:00,
2015-08-27 10:52:00,70.0,55.9,29.86,North,11,4.0,4.0,61,0.00,,,0.00,meteobridge,2015-08-27 14:52:00,
2015-08-27 10:57:00,70.0,55.0,29.86,North,0,0.0,4.0,59,0.00,,,0.00,meteobridge,2015-08-27 14:57:00,
2015-08-27 11:02:00,70.3,55.8,29.86,North,0,0.0,2.0,60,0.00,,,0.00,meteobridge,2015-08-27 15:02:00,
2015-08-27 11:07:00,70.3,54.9,29.86,NNW,331,0.9,4.0,58,0.00,,,0.00,meteobridge,2015-08-27 15:07:00,
2015-08-27 11:12:00,71.1,56.8,29.86,NNW,335,0.9,2.0,61,0.00,,,0.00,meteobridge,2015-08-27 15:12:00,
2015-08-27 11:17:00,71.4,54.0,29.85,North,5,4.9,7.0,54,0.00,,,0.00,meteobridge,2015-08-27 15:17:00,
2015-08-27 11:22:00,71.6,53.6,29.85,NW,323,0.9,5.0,53,0.00,,,0.00,meteobridge,2015-08-27 15:22:00,
2015-08-27 11:27:00,71.4,54.0,29.85,WNW,300,0.0,2.0,54,0.00,,,0.00,meteobridge,2015-08-27 15:27:00,
2015-08-27 11:33:00,71.4,53.4,29.85,WNW,300,0.0,0.0,53,0.00,,,0.00,meteobridge,2015-08-27 15:33:00,
2015-08-27 11:38:00,72.0,54.9,29.85,WNW,298,2.0,2.0,55,0.00,,,0.00,meteobridge,2015-08-27 15:38:00,
2015-08-27 11:43:00,72.1,55.0,29.85,SSW,211,0.9,4.0,55,0.00,,,0.00,meteobridge,2015-08-27 15:43:00,
2015-08-27 11:48:00,71.8,55.2,29.85,SSW,211,2.0,4.0,56,0.00,,,0.00,meteobridge,2015-08-27 15:48:00,
2015-08-27 11:53:00,71.8,55.8,29.85,SSW,211,0.9,1.0,57,0.00,,,0.00,meteobridge,2015-08-27 15:53:00,
2015-08-27 11:58:00,71.8,55.2,29.85,SSW,211,0.0,1.0,56,0.00,,,0.00,meteobridge,2015-08-27 15:58:00,
2015-08-27 12:03:00,72.0,55.9,29.85,SSW,211,0.9,3.0,57,0.00,,,0.00,meteobridge,2015-08-27 16:03:00,
2015-08-27 12:08:00,72.5,56.5,29.85,SSW,211,0.0,1.0,57,0.00,,,0.00,meteobridge,2015-08-27 16:08:00,
2015-08-27 12:13:00,73.0,56.5,29.85,SSW,212,0.0,2.0,56,0.00,,,0.00,meteobridge,2015-08-27 16:13:00,
2015-08-27 12:18:00,73.6,54.3,29.85,SW,218,0.0,5.0,51,0.00,,,0.00,meteobridge,2015-08-27 16:18:00,
2015-08-27 12:23:00,73.6,55.9,29.85,SW,218,2.9,4.0,54,0.00,,,0.00,meteobridge,2015-08-27 16:23:00,
2015-08-27 12:29:00,73.8,55.0,29.84,SW,218,0.0,0.0,52,0.00,,,0.00,meteobridge,2015-08-27 16:29:00,
2015-08-27 12:34:00,74.7,55.4,29.84,SW,218,0.9,1.0,51,0.00,,,0.00,meteobridge,2015-08-27 16:34:00,
2015-08-27 12:39:00,75.4,55.9,29.84,SW,218,0.0,1.0,51,0.00,,,0.00,meteobridge,2015-08-27 16:39:00,
2015-08-27 12:44:00,75.4,57.0,29.84,SW,218,0.9,6.0,53,0.00,,,0.00,meteobridge,2015-08-27 16:44:00,
2015-08-27 12:49:00,75.0,55.6,29.84,SW,218,4.0,6.0,51,0.00,,,0.00,meteobridge,2015-08-27 16:49:00,
2015-08-27 12:54:00,74.8,55.6,29.84,SW,218,0.9,4.0,51,0.00,,,0.00,meteobridge,2015-08-27 16:54:00,
2015-08-27 12:59:00,75.6,56.1,29.83,SW,218,0.0,5.0,51,0.00,,,0.00,meteobridge,2015-08-27 16:59:00,
2015-08-27 13:04:00,75.0,56.1,29.83,SW,218,0.0,1.0,52,0.00,,,0.00,meteobridge,2015-08-27 17:04:00,
2015-08-27 13:09:00,74.8,55.0,29.83,SW,218,0.0,5.0,50,0.00,,,0.00,meteobridge,2015-08-27 17:09:00,
2015-08-27 13:15:00,75.6,55.0,29.83,SW,218,0.0,5.0,49,0.00,,,0.00,meteobridge,2015-08-27 17:15:00,
2015-08-27 13:20:00,76.6,56.7,29.83,SW,218,0.9,1.0,50,0.00,,,0.00,meteobridge,2015-08-27 17:20:00,
2015-08-27 13:25:00,76.8,55.0,29.83,SW,218,0.0,4.0,47,0.00,,,0.00,meteobridge,2015-08-27 17:25:00,
2015-08-27 13:30:00,76.3,55.2,29.82,SW,218,0.9,4.0,48,0.00,,,0.00,meteobridge,2015-08-27 17:30:00,
2015-08-27 13:35:00,75.4,55.4,29.82,SW,218,0.0,2.0,50,0.00,,,0.00,meteobridge,2015-08-27 17:35:00,
2015-08-27 13:41:00,74.7,54.9,29.82,SW,218,0.0,1.0,50,0.00,,,0.00,meteobridge,2015-08-27 17:41:00,
2015-08-27 13:46:00,74.1,54.3,29.82,SW,218,0.0,1.0,50,0.00,,,0.00,meteobridge,2015-08-27 17:46:00,
2015-08-27 13:51:00,74.7,57.4,29.82,SW,217,0.0,6.0,55,0.00,,,0.00,meteobridge,2015-08-27 17:51:00,
2015-08-27 13:56:00,75.7,55.8,29.82,SW,217,6.0,6.0,50,0.00,,,0.00,meteobridge,2015-08-27 17:56:00,
2015-08-27 14:02:00,76.5,54.7,29.81,SSW,207,0.9,6.0,47,0.00,,,0.00,meteobridge,2015-08-27 18:02:00,
2015-08-27 14:07:00,77.5,56.3,29.81,SSW,207,0.0,3.0,48,0.00,,,0.00,meteobridge,2015-08-27 18:07:00,
2015-08-27 14:12:00,78.4,58.3,29.81,SSW,208,4.0,5.0,50,0.00,,,0.00,meteobridge,2015-08-27 18:12:00,
2015-08-27 14:17:00,78.8,55.0,29.81,SSW,211,0.0,3.0,44,0.00,,,0.00,meteobridge,2015-08-27 18:17:00,
2015-08-27 14:22:00,78.6,54.9,29.81,SE,145,2.9,3.0,44,0.00,,,0.00,meteobridge,2015-08-27 18:22:00,
2015-08-27 14:27:00,79.0,56.5,29.81,SE,146,0.0,3.0,46,0.00,,,0.00,meteobridge,2015-08-27 18:27:00,
2015-08-27 14:32:00,79.2,55.9,29.80,SW,223,0.0,1.0,45,0.00,,,0.00,meteobridge,2015-08-27 18:32:00,
2015-08-27 14:37:00,78.8,56.8,29.80,West,265,2.0,6.0,47,0.00,,,0.00,meteobridge,2015-08-27 18:37:00,
2015-08-27 14:42:00,78.8,55.0,29.80,WNW,302,0.9,5.0,44,0.00,,,0.00,meteobridge,2015-08-27 18:42:00,
2015-08-27 14:47:00,79.0,56.5,29.80,North,5,0.9,3.0,46,0.00,,,0.00,meteobridge,2015-08-27 18:47:00,
2015-08-27 14:52:00,78.8,56.3,29.80,North,5,2.0,2.0,46,0.00,,,0.00,meteobridge,2015-08-27 18:52:00,
2015-08-27 14:58:00,78.1,56.3,29.80,NNW,333,0.0,1.0,47,0.00,,,0.00,meteobridge,2015-08-27 18:58:00,
2015-08-27 15:03:00,77.4,54.3,29.80,NNW,334,0.9,2.0,45,0.00,,,0.00,meteobridge,2015-08-27 19:03:00,
2015-08-27 15:08:00,77.5,56.3,29.80,NNW,335,0.9,1.0,48,0.00,,,0.00,meteobridge,2015-08-27 19:08:00,
2015-08-27 15:13:00,78.4,55.9,29.80,North,351,0.0,1.0,46,0.00,,,0.00,meteobridge,2015-08-27 19:13:00,
2015-08-27 15:18:00,77.7,55.2,29.79,NNW,342,0.0,4.0,46,0.00,,,0.00,meteobridge,2015-08-27 19:18:00,
2015-08-27 15:23:00,77.4,56.7,29.79,NNW,342,0.0,1.0,49,0.00,,,0.00,meteobridge,2015-08-27 19:23:00,
2015-08-27 15:28:00,77.7,55.9,29.79,NNW,343,0.0,1.0,47,0.00,,,0.00,meteobridge,2015-08-27 19:28:00,
2015-08-27 15:33:00,77.9,54.3,29.79,NNW,343,0.9,3.0,44,0.00,,,0.00,meteobridge,2015-08-27 19:33:00,